GW4247 Weather Reports


time (UTC)temp
C
wind
direction
speed
KPH
gust
KPH
rain 1hr
cm
rain 24hr
cm
rain mn
cm
humidity
%
barometer
mb
20260503022159 2 277 0.0 0.0 0.00 0.03 0.03 86 1007.9
20260503021657 2 277 0.0 0.0 0.00 0.03 0.03 84 1007.7
20260503021153 3 277 0.0 0.0 0.00 0.03 0.03 84 1007.8
20260503020651 3 277 0.0 0.0 0.00 0.03 0.03 82 1007.9
20260503020148 3 277 0.0 0.0 0.00 0.03 0.03 81 1007.9
20260503015644 3 277 0.0 0.0 0.00 0.03 0.03 81 1007.8
20260503015141 3 277 0.0 0.0 0.00 0.03 0.03 80 1007.8
20260503014637 4 277 0.0 0.0 0.00 0.03 0.03 79 1007.9
20260503014135 4 277 0.0 0.0 0.00 0.03 0.03 79 1007.7
20260503013632 5 274 0.0 0.0 0.00 0.03 0.03 76 1007.7
20260503013130 5 274 0.0 0.0 0.00 0.03 0.03 77 1007.7
20260503012627 5 273 0.0 0.0 0.00 0.03 0.03 74 1007.8
20260503012124 5 272 0.0 0.0 0.00 0.03 0.03 72 1007.7
20260503011621 5 273 0.0 0.0 0.00 0.03 0.03 74 1007.5
20260503011118 5 272 0.0 0.0 0.00 0.03 0.03 73 1007.4
20260503010614 5 272 0.0 0.0 0.00 0.03 0.03 71 1007.5
20260503010111 5 268 0.0 0.0 0.00 0.03 0.03 70 1007.4
20260503005608 5 278 0.0 0.0 0.00 0.03 0.03 70 1007.4
20260503005106 5 280 0.0 0.0 0.00 0.03 0.03 70 1007.3
20260503004601 5 270 0.0 0.0 0.00 0.03 0.03 69 1007.3
20260503004100 5 264 0.0 0.0 0.00 0.03 0.03 69 1007.6
20260503003556 6 274 0.0 0.0 0.00 0.03 0.03 69 1007.3
20260503003053 6 277 0.0 0.0 0.00 0.03 0.03 68 1007.4
20260503002550 6 264 0.0 0.0 0.00 0.03 0.03 67 1007.3
20260503002047 6 275 0.0 0.0 0.00 0.03 0.03 67 1007.4
20260503001543 6 291 0.0 0.0 0.00 0.03 0.03 65 1007.4
20260503001041 6 275 0.0 0.0 0.00 0.03 0.03 65 1007.4
20260503000538 6 281 0.0 0.0 0.00 0.03 0.03 66 1007.3
20260503000035 6 272 0.0 0.0 0.00 0.03 0.03 64 1007.2
20260502235531 6 330 0.0 1.6 0.00 0.03 0.03 63 1007.1
20260502235030 6 251 1.6 1.6 0.00 0.03 0.03 63 1007.2
20260502234525 6 327 0.0 1.6 0.00 0.03 0.03 63 1007.2
20260502234023 6 287 0.0 0.0 0.00 0.03 0.03 63 1007.2
20260502233523 6 299 0.0 0.0 0.00 0.03 0.03 62 1007.0
20260502233021 6 269 0.0 0.0 0.00 0.03 0.03 62 1007.3
20260502232517 6 268 0.0 0.0 0.00 0.03 0.03 62 1007.1
20260502232014 7 279 3.2 3.2 0.00 0.03 0.03 60 1007.0
20260502231511 7 268 0.0 0.0 0.00 0.03 0.03 62 1006.9
20260502231009 7 267 0.0 0.0 0.00 0.03 0.03 61 1007.0
20260502230507 7 270 0.0 0.0 0.00 0.03 0.03 60 1007.0
20260502230006 7 281 0.0 1.6 0.00 0.03 0.03 61 1006.9
20260502225500 7 274 0.0 1.6 0.00 0.03 0.03 59 1006.9
20260502224958 7 253 0.0 0.0 0.00 0.03 0.03 60 1007.0
20260502224454 7 258 0.0 1.6 0.00 0.03 0.03 61 1006.9
20260502223951 7 263 0.0 0.0 0.00 0.03 0.03 58 1007.1
20260502223449 7 174 1.6 1.6 0.00 0.03 0.03 59 1007.0
20260502222947 7 268 3.2 3.2 0.00 0.03 0.03 61 1007.1
20260502222444 7 259 1.6 1.6 0.00 0.03 0.03 61 1007.0
20260502221944 7 273 1.6 3.2 0.00 0.03 0.03 61 1007.0
20260502221441 7 310 1.6 1.6 0.00 0.03 0.03 62 1007.0
20260502220938 7 273 1.6 1.6 0.00 0.03 0.03 62 1007.0
20260502220434 7 262 1.6 1.6 0.00 0.03 0.03 63 1007.2
20260502215931 7 260 1.6 1.6 0.00 0.03 0.03 63 1006.9
20260502215428 7 19 3.2 4.8 0.00 0.03 0.03 62 1007.1
20260502214925 7 274 1.6 3.2 0.00 0.03 0.03 63 1006.7
20260502214421 8 251 3.2 6.4 0.00 0.03 0.03 62 1006.8
20260502213919 7 280 0.0 0.0 0.00 0.03 0.03 56 1006.8
20260502213416 8 99 3.2 4.8 0.00 0.03 0.03 58 1006.7
20260502212915 8 285 3.2 3.2 0.00 0.03 0.03 57 1006.7
20260502212413 8 261 1.6 1.6 0.00 0.03 0.03 55 1006.8
20260502211910 8 164 0.0 1.6 0.00 0.03 0.03 54 1006.5
20260502211405 8 294 3.2 4.8 0.00 0.03 0.03 56 1006.5
20260502210903 8 216 4.8 4.8 0.00 0.03 0.03 52 1006.7
20260502210400 8 259 1.6 1.6 0.00 0.03 0.03 54 1006.7
20260502205857 8 20 3.2 4.8 0.00 0.03 0.03 57 1006.6
20260502205353 8 282 3.2 3.2 0.00 0.03 0.03 58 1006.7
20260502204850 8 127 1.6 3.2 0.00 0.03 0.03 59 1006.7
20260502204347 8 275 0.0 1.6 0.00 0.03 0.03 61 1006.5
20260502203845 8 236 0.0 0.0 0.00 0.03 0.03 60 1006.6
20260502203343 8 272 0.0 1.6 0.00 0.03 0.03 62 1006.7
20260502202838 7 141 1.6 3.2 0.00 0.03 0.03 61 1006.7
20260502202335 7 236 6.4 6.4 0.00 0.03 0.03 58 1006.8
20260502201833 7 350 1.6 1.6 0.00 0.03 0.03 62 1006.6
20260502201329 7 275 1.6 1.6 0.00 0.03 0.03 60 1006.7
20260502200825 8 302 1.6 3.2 0.00 0.03 0.03 61 1006.8
20260502200321 7 250 1.6 1.6 0.00 0.03 0.03 62 1006.8
20260502195819 7 256 0.0 0.0 0.00 0.03 0.03 61 1006.8
20260502195316 8 330 1.6 1.6 0.00 0.03 0.03 61 1006.7
20260502194813 8 54 4.8 6.4 0.00 0.03 0.03 62 1006.7
20260502194309 8 264 0.0 1.6 0.00 0.03 0.03 59 1006.8
20260502193805 8 90 6.4 11.3 0.00 0.03 0.03 54 1006.7
20260502193303 8 284 0.0 1.6 0.00 0.03 0.03 54 1006.8
20260502192758 8 275 1.6 3.2 0.00 0.03 0.03 57 1006.8
20260502192255 8 326 1.6 3.2 0.00 0.03 0.03 55 1006.9
20260502191752 8 279 1.6 3.2 0.00 0.03 0.03 55 1007.0
20260502191250 8 355 1.6 1.6 0.00 0.03 0.03 59 1006.9
20260502190747 8 70 1.6 3.2 0.00 0.03 0.03 59 1007.2
20260502190245 8 237 1.6 3.2 0.00 0.03 0.03 58 1007.0
20260502185744 8 282 3.2 3.2 0.00 0.03 0.03 59 1007.1
20260502185241 8 243 1.6 1.6 0.00 0.03 0.03 54 1007.0
20260502184737 8 209 1.6 3.2 0.00 0.03 0.03 54 1007.1
20260502184233 8 271 1.6 1.6 0.00 0.03 0.03 57 1007.0
20260502183730 8 237 0.0 0.0 0.00 0.03 0.03 59 1007.1
20260502183225 8 20 1.6 3.2 0.00 0.03 0.03 56 1007.0
20260502182721 8 272 6.4 9.7 0.00 0.03 0.03 55 1007.1
20260502182217 8 272 8.0 9.7 0.00 0.03 0.03 54 1007.0
20260502181714 8 243 1.6 1.6 0.00 0.03 0.03 55 1007.2
20260502181214 8 256 4.8 4.8 0.00 0.03 0.03 55 1007.0
20260502180710 8 246 1.6 3.2 0.00 0.03 0.03 56 1007.1
20260502180208 7 279 3.2 3.2 0.00 0.03 0.03 57 1007.0
20260502170131 9 265 3.2 4.8 0.00 0.03 0.03 50 1007.0
20260502164118 7 271 0.0 1.6 0.00 0.03 0.03 60 1007.3
20260502163609 7 190 4.8 9.7 0.00 0.03 0.03 58 1007.4
20260502163105 7 273 4.8 4.8 0.00 0.03 0.03 57 1007.4
20260502162602 8 230 8.0 11.3 0.00 0.03 0.03 59 1007.5
20260502162059 7 253 1.6 1.6 0.00 0.03 0.03 63 1007.6
20260502161556 7 277 3.2 3.2 0.00 0.03 0.03 60 1007.5
20260502161053 8 258 8.0 11.3 0.00 0.03 0.03 57 1007.5
20260502160551 8 264 4.8 6.4 0.00 0.03 0.03 55 1007.6
20260502152004 10 157 1.6 3.2 0.00 0.03 0.03 57 1007.5
20260502151501 8 140 3.2 3.2 0.00 0.03 0.03 59 1007.4
20260502150958 9 2 8.0 11.3 0.00 0.03 0.03 53 1007.5
20260502150455 9 254 3.2 4.8 0.00 0.03 0.03 58 1007.6
20260502130341 4 243 1.6 3.2 0.00 0.00 0.00 76 1007.5
20260502123323 3 286 3.2 4.8 0.00 0.00 0.00 83 1007.1
20260502122820 3 279 1.6 1.6 0.00 0.00 0.00 85 1007.1
20260502122316 2 286 0.0 1.6 0.00 0.00 0.00 90 1006.9
20260502121815 2 256 1.6 3.2 0.00 0.00 0.00 91 1007.1
20260502121312 1 314 1.6 1.6 0.00 0.00 0.00 97 1006.8
20260502120808 1 281 0.0 1.6 0.00 0.00 0.00 99 1007.2
20260502120305 1 261 1.6 1.6 0.00 0.00 0.00 99 1007.0
20260502115803 1 25 1.6 3.2 0.00 0.00 0.00 99 1006.8
20260502115259 1 265 3.2 3.2 0.00 0.00 0.00 99 1006.8
20260502114755 0 272 0.0 0.0 0.00 0.00 0.00 99 1006.8
20260502114253 0 266 0.0 0.0 0.00 0.00 0.00 99 1006.7
20260502113750 0 279 0.0 0.0 0.00 0.00 0.00 99 1006.8
20260502113248 0 277 0.0 0.0 0.00 0.00 0.00 99 1006.9
20260502112746 0 273 0.0 0.0 0.00 0.00 0.00 99 1006.8
20260502112243 0 273 0.0 0.0 0.00 0.00 0.00 99 1006.7
20260502111739 -1 277 0.0 0.0 0.00 0.00 0.00 99 1006.8
20260502111237 -1 271 0.0 0.0 0.00 0.00 0.00 99 1006.9
20260502110734 -1 274 0.0 0.0 0.00 0.00 0.00 99 1006.8
20260502110232 -1 278 0.0 0.0 0.00 0.00 0.00 99 1006.7
20260502105730 -1 274 0.0 0.0 0.00 0.00 0.00 99 1006.8
20260502105226 -1 274 0.0 0.0 0.00 0.00 0.00 99 1006.6
20260502104724 -1 277 0.0 0.0 0.00 0.00 0.00 99 1006.6
20260502104221 -1 277 0.0 0.0 0.00 0.00 0.00 99 1006.6
20260502103719 -1 277 0.0 0.0 0.00 0.00 0.00 99 1006.6
20260502103216 -1 277 0.0 0.0 0.00 0.00 0.00 99 1006.8
20260502102713 -1 277 0.0 0.0 0.00 0.00 0.00 99 1006.6
20260502102209 -1 278 0.0 0.0 0.00 0.00 0.00 99 1006.8
20260502101708 -1 277 0.0 0.0 0.00 0.00 0.00 99 1006.7
20260502101206 -1 277 0.0 0.0 0.00 0.00 0.00 99 1006.9
20260502100703 -1 277 0.0 0.0 0.00 0.00 0.00 99 1006.7
20260502100201 -1 277 0.0 0.0 0.00 0.00 0.00 99 1006.8
20260502091136 -1 277 0.0 0.0 0.00 0.00 0.00 99 1006.8
20260502090632 -1 277 0.0 0.0 0.00 0.00 0.00 99 1006.7
20260502090130 -1 277 0.0 0.0 0.00 0.00 0.00 99 1006.7
20260502071527 0 276 0.0 0.0 0.00 0.00 0.00 99 1006.3
20260502071026 0 276 0.0 0.0 0.00 0.00 0.00 99 1006.4
20260502070523 0 272 0.0 0.0 0.00 0.00 0.00 99 1006.4
20260502070021 0 273 0.0 0.0 0.00 0.00 0.00 99 1006.6
20260502065519 0 265 0.0 0.0 0.00 0.00 0.00 99 1006.6
20260502065017 0 279 0.0 0.0 0.00 0.00 0.00 99 1006.6
20260502064515 0 281 0.0 0.0 0.00 0.00 0.00 99 1006.8
20260502064012 0 279 0.0 0.0 0.00 0.00 0.00 99 1006.9
20260502063510 0 279 0.0 0.0 0.00 0.00 0.00 99 1006.8
20260502063007 0 282 0.0 0.0 0.00 0.00 0.00 99 1006.7
20260502062503 0 275 0.0 0.0 0.00 0.00 0.00 99 1006.7
20260502062003 1 274 0.0 0.0 0.00 0.00 0.00 99 1006.7
20260502061500 1 277 0.0 0.0 0.00 0.00 0.00 99 1006.7
20260502060955 1 277 0.0 0.0 0.00 0.00 0.00 99 1007.0
20260502060451 1 277 0.0 0.0 0.00 0.00 0.00 99 1006.9
20260502055948 1 279 0.0 0.0 0.00 0.00 0.00 99 1006.8
20260502055446 2 273 0.0 0.0 0.00 0.00 0.00 99 1007.0
20260502054940 2 276 0.0 0.0 0.00 0.00 0.00 99 1007.0
20260502054438 1 277 0.0 0.0 0.00 0.00 0.00 99 1006.8
20260502053935 1 274 0.0 0.0 0.00 0.00 0.00 99 1006.8
20260502053432 1 274 0.0 0.0 0.00 0.00 0.00 99 1007.1
20260502052930 1 278 0.0 0.0 0.00 0.00 0.00 99 1007.2
20260502052428 1 275 0.0 0.0 0.00 0.00 0.00 99 1006.8
20260502051926 1 275 0.0 0.0 0.00 0.00 0.00 99 1006.9
20260502051423 1 275 0.0 0.0 0.00 0.00 0.00 99 1006.9
20260502050920 2 274 0.0 0.0 0.00 0.00 0.00 99 1007.0
20260502050416 2 275 0.0 0.0 0.00 0.00 0.00 99 1006.9
20260502045914 2 276 0.0 0.0 0.00 0.00 0.00 99 1006.9
20260502045411 2 276 0.0 0.0 0.00 0.00 0.00 99 1007.0
20260502044908 2 277 0.0 0.0 0.00 0.00 0.00 99 1006.7
20260502044403 2 276 0.0 0.0 0.00 0.00 0.00 99 1006.7
20260502043900 2 277 0.0 0.0 0.00 0.00 0.00 99 1006.8
20260502043358 1 275 0.0 0.0 0.00 0.00 0.00 99 1006.8
20260502042857 1 276 0.0 0.0 0.00 0.00 0.00 99 1006.6
20260502042355 1 274 0.0 0.0 0.00 0.00 0.00 99 1006.8
20260502041852 1 274 0.0 0.0 0.00 0.00 0.00 99 1006.8
20260502041349 1 274 0.0 0.0 0.00 0.00 0.00 99 1007.0
20260502040847 1 274 0.0 0.0 0.00 0.00 0.00 99 1006.8
20260502040343 1 273 0.0 0.0 0.00 0.00 0.00 99 1006.7
20260502035839 1 278 0.0 0.0 0.00 0.33 0.33 99 1006.8
20260502035336 1 275 0.0 0.0 0.00 0.33 0.33 99 1006.9
20260502034834 2 275 0.0 0.0 0.00 0.33 0.33 98 1006.9
20260502034332 2 275 0.0 0.0 0.00 0.33 0.33 98 1006.9
20260502033830 2 276 0.0 0.0 0.00 0.33 0.33 98 1006.8
20260502033327 2 277 0.0 0.0 0.00 0.33 0.33 98 1006.9
20260502032824 2 282 0.0 0.0 0.00 0.33 0.33 98 1006.9
20260502032320 2 275 0.0 0.0 0.00 0.33 0.33 98 1007.2
20260502031818 2 280 0.0 0.0 0.00 0.33 0.33 98 1006.9
20260502031316 3 276 0.0 0.0 0.00 0.33 0.33 98 1007.3
20260502030814 3 271 0.0 0.0 0.00 0.33 0.33 97 1007.1
20260502030312 3 272 0.0 0.0 0.00 0.33 0.33 97 1007.2
20260502025809 3 275 0.0 0.0 0.00 0.33 0.33 97 1007.2
20260502025307 3 278 0.0 0.0 0.00 0.33 0.33 97 1007.3
20260502024804 3 275 0.0 0.0 0.00 0.33 0.33 97 1007.0
20260502024302 3 273 0.0 0.0 0.00 0.33 0.33 96 1007.0
20260502023800 3 282 0.0 0.0 0.00 0.33 0.33 96 1006.9
20260502023257 3 273 0.0 0.0 0.00 0.33 0.33 95 1007.0
20260502022755 4 277 0.0 0.0 0.00 0.33 0.33 95 1007.0